Temp
-1 -1 -1 -1 -1 -1 -1 -1 -1 -2 -2 -2 -3 -3 -3 -3 -3 -4 -4 -4 -4 -4 -4 -4 -5 -5 -4 -5 -5 -5 -5 -5 -5 -5 -6 -6 -6 -6 -6 -5 -5 -5 -5 -4 -4 -4 -4 -3 -4 -5 -5 -5 -6 -6 -7 -7 -7 -7 -8 -8 -8 -8 -8
-1 -1 -1 -1 -1 -1 -1 -1 -1 -2 -2 -2 -2 -3 -3 -3 -3 -4 -4 -4 -4 -4 -4 -4 -5 -5 -5 -5 -5 -5 -5 -5 -5 -6 -6 -6 -6 -6 -6 -6 -6 -6 -6 -5 -5 -6 -5 -5 -5 -6 -5 -6 -6 -6 -7 -8 -8 -8 -8 -8 -8 -8 -9
-2 -2 -2 -2 -1 -1 -1 -1 -1 -2 -2 -2 -2 -3 -3 -3 -3 -3 -3 -4 -4 -4 -4 -4 -5 -5 -5 -5 -5 -5 -5 -5 -6 -6 -6 -6 -7 -7 -7 -7 -6 -6 -6 -6 -6 -7 -6 -6 -6 -6 -6 -6 -6 -6 -7 -8 -8 -8 -9 -9 -9 -9 -9
-3 -3 -3 -3 -2 -2 -2 -2 -2 -2 -2 -2 -2 -2 -3 -3 -3 -3 -3 -4 -4 -4 -4 -4 -5 -5 -5 -5 -6 -6 -6 -6 -6 -6 -6 -7 -7 -7 -7 -7 -7 -7 -6 -6 -6 -7 -7 -7 -7 -7 -6 -7 -7 -8 -8 -8 -9 -9 -9 -9 -10 -10 -10
-4 -3 -4 -4 -3 -3 -3 -3 -2 -2 -2 -2 -2 -2 -3 -3 -3 -3 -3 -3 -4 -4 -4 -4 -5 -5 -5 -5 -6 -6 -6 -6 -6 -6 -7 -7 -7 -7 -7 -7 -7 -7 -7 -7 -7 -7 -8 -8 -8 -8 -8 -8 -8 -9 -9 -10 -10 -10 -10 -10 -10 -10 -10
-5 -5 -4 -4 -4 -4 -4 -4 -3 -3 -3 -3 -2 -3 -3 -3 -3 -3 -3 -4 -4 -4 -4 -4 -5 -5 -5 -5 -6 -6 -6 -6 -6 -7 -7 -7 -7 -7 -7 -8 -8 -8 -8 -8 -7 -8 -9 -10 -10 -10 -10 -9 -9 -9 -10 -11 -11 -11 -11 -11 -11 -11 -11
-6 -6 -5 -5 -5 -5 -5 -5 -4 -4 -4 -4 -3 -3 -3 -3 -3 -4 -4 -4 -4 -4 -4 -5 -5 -5 -5 -5 -6 -6 -6 -6 -7 -7 -7 -7 -7 -8 -8 -8 -8 -8 -8 -8 -8 -8 -9 -10 -11 -11 -11 -11 -10 -10 -10 -11 -13 -13 -13 -12 -12 -11 -11
-7 -7 -6 -6 -6 -6 -6 -5 -5 -5 -5 -5 -5 -4 -4 -4 -4 -4 -4 -4 -4 -4 -5 -5 -5 -5 -5 -5 -6 -6 -6 -6 -6 -7 -7 -7 -7 -8 -8 -9 -9 -9 -9 -9 -9 -9 -10 -11 -12 -12 -12 -12 -12 -12 -12 -12 -12 -13 -13 -12 -12 -12 -11
-8 -8 -8 -7 -7 -7 -7 -6 -6 -6 -6 -6 -6 -6 -5 -5 -5 -5 -5 -5 -5 -5 -5 -5 -5 -5 -5 -6 -6 -6 -6 -6 -6 -7 -7 -7 -8 -8 -9 -9 -9 -10 -10 -10 -10 -10 -10 -11 -13 -13 -13 -13 -13 -13 -12 -12 -12 -12 -12 -12 -12 -12 -12
-9 -9 -9 -9 -9 -8 -8 -8 -7 -7 -7 -7 -7 -7 -7 -6 -6 -6 -6 -6 -6 -6 -6 -6 -6 -6 -6 -6 -6 -6 -6 -6 -7 -7 -7 -7 -8 -8 -9 -9 -10 -10 -10 -10 -11 -11 -11 -12 -13 -13 -13 -13 -13 -12 -12 -12 -13 -13 -13 -13 -14 -14 -14
-11 -10 -10 -10 -10 -10 -9 -9 -8 -8 -8 -8 -7 -7 -7 -7 -7 -7 -6 -6 -6 -6 -6 -6 -6 -6 -6 -6 -6 -6 -6 -7 -7 -7 -7 -7 -8 -8 -8 -9 -10 -10 -10 -11 -11 -11 -11 -11 -12 -12 -13 -13 -13 -13 -13 -13 -13 -13 -13 -14 -15 -15 -15
-12 -12 -11 -11 -11 -11 -11 -10 -10 -9 -9 -8 -8 -8 -7 -7 -7 -7 -7 -7 -7 -7 -7 -7 -7 -7 -7 -7 -7 -7 -7 -7 -7 -7 -8 -8 -8 -8 -8 -8 -9 -9 -10 -11 -11 -11 -11 -11 -12 -12 -13 -13 -13 -13 -13 -13 -13 -14 -14 -15 -15 -15 -15
-12 -12 -12 -12 -12 -12 -12 -11 -11 -10 -10 -9 -9 -8 -8 -8 -8 -8 -7 -7 -7 -7 -7 -7 -7 -7 -7 -7 -7 -7 -8 -8 -8 -8 -8 -8 -8 -9 -9 -9 -9 -9 -9 -10 -10 -11 -11 -11 -11 -12 -12 -13 -13 -13 -14 -14 -14 -14 -14 -15 -15 -15 -14
-13 -13 -13 -13 -13 -13 -12 -12 -12 -11 -10 -10 -9 -9 -9 -9 -9 -9 -9 -9 -8 -8 -8 -8 -8 -8 -8 -8 -8 -8 -8 -8 -8 -9 -9 -9 -9 -9 -9 -9 -9 -9 -9 -9 -10 -10 -11 -11 -11 -11 -12 -12 -12 -13 -13 -14 -14 -15 -15 -15 -15 -14 -14
-14 -14 -14 -14 -14 -13 -13 -13 -13 -12 -11 -10 -10 -9 -10 -10 -10 -10 -10 -10 -10 -9 -9 -9 -9 -9 -9 -8 -8 -8 -8 -9 -9 -9 -9 -10 -10 -10 -10 -10 -10 -10 -10 -10 -10 -10 -10 -10 -11 -11 -11 -12 -12 -12 -12 -13 -13 -13 -14 -14 -15 -15 -15
-14 -14 -14 -14 -14 -14 -14 -13 -13 -13 -12 -11 -10 -11 -11 -12 -12 -11 -11 -11 -11 -11 -10 -10 -10 -10 -9 -9 -9 -9 -9 -9 -9 -9 -10 -10 -10 -10 -10 -10 -10 -10 -10 -10 -10 -10 -10 -11 -11 -11 -11 -11 -12 -12 -12 -13 -14 -14 -15 -16 -16 -17 -17
-15 -15 -15 -15 -15 -15 -15 -14 -14 -14 -13 -12 -11 -12 -12 -13 -13 -13 -12 -12 -12 -12 -11 -11 -11 -11 -10 -10 -10 -10 -10 -10 -10 -10 -10 -10 -11 -11 -11 -11 -11 -11 -11 -10 -10 -10 -11 -11 -11 -12 -12 -12 -12 -12 -13 -14 -15 -16 -16 -17 -17 -18 -18
-15 -15 -15 -15 -15 -15 -15 -15 -14 -14 -14 -13 -12 -12 -13 -13 -14 -13 -13 -13 -13 -12 -12 -12 -12 -12 -11 -11 -11 -11 -11 -10 -10 -10 -11 -11 -11 -11 -11 -11 -11 -11 -11 -11 -11 -10 -10 -11 -11 -12 -12 -12 -13 -13 -13 -14 -15 -15 -16 -17 -17 -17 -18
-16 -15 -15 -16 -16 -16 -16 -15 -15 -15 -15 -14 -13 -13 -13 -14 -14 -14 -14 -14 -14 -13 -13 -13 -12 -12 -12 -12 -12 -11 -11 -10 -10 -10 -10 -11 -11 -12 -12 -12 -12 -12 -12 -12 -11 -11 -11 -11 -11 -11 -12 -12 -13 -13 -13 -13 -14 -14 -15 -16 -17 -17 -17
-17 -16 -16 -16 -16 -16 -16 -16 -16 -15 -15 -15 -14 -14 -14 -14 -14 -14 -14 -14 -14 -14 -14 -14 -13 -13 -13 -13 -12 -12 -11 -11 -10 -10 -10 -11 -12 -12 -12 -11 -12 -12 -12 -12 -12 -12 -11 -11 -11 -11 -12 -12 -12 -13 -13 -14 -14 -14 -14 -15 -16 -17 -17
-17 -17 -16 -16 -16 -16 -16 -17 -16 -16 -16 -16 -15 -15 -14 -14 -15 -14 -14 -15 -15 -15 -15 -15 -15 -14 -14 -13 -13 -13 -12 -11 -11 -10 -10 -11 -11 -11 -11 -11 -11 -12 -12 -13 -13 -12 -12 -12 -12 -12 -12 -12 -12 -13 -13 -14 -14 -14 -14 -14 -15 -16 -17
-18 -17 -17 -17 -16 -17 -17 -17 -17 -17 -16 -16 -16 -16 -15 -15 -15 -14 -15 -16 -16 -16 -16 -16 -16 -15 -15 -14 -14 -13 -13 -12 -11 -11 -11 -11 -11 -11 -11 -11 -11 -12 -12 -13 -13 -13 -13 -13 -13 -13 -13 -13 -13 -13 -13 -13 -14 -14 -14 -14 -14 -15 -16
-18 -18 -17 -17 -17 -17 -18 -18 -17 -17 -17 -17 -17 -16 -16 -15 -15 -15 -15 -16 -16 -16 -16 -16 -16 -16 -16 -15 -14 -13 -13 -12 -12 -12 -12 -12 -12 -12 -12 -11 -11 -12 -13 -13 -14 -14 -14 -14 -14 -14 -14 -14 -13 -13 -13 -13 -14 -14 -14 -14 -14 -14 -15
-18 -19 -19 -18 -18 -18 -18 -18 -18 -18 -18 -18 -18 -17 -17 -16 -16 -16 -16 -17 -17 -17 -17 -17 -16 -16 -16 -15 -15 -14 -14 -14 -14 -14 -14 -14 -14 -14 -13 -13 -12 -12 -13 -14 -14 -15 -15 -15 -15 -15 -15 -14 -14 -13 -13 -13 -13 -14 -14 -15 -15 -15 -15
-19 -19 -19 -19 -19 -19 -19 -19 -19 -19 -19 -19 -18 -18 -18 -17 -17 -17 -17 -17 -17 -17 -17 -17 -17 -16 -16 -16 -16 -16 -15 -15 -15 -15 -15 -15 -15 -15 -15 -15 -14 -14 -13 -14 -14 -15 -15 -15 -15 -15 -14 -14 -14 -14 -14 -14 -14 -15 -15 -15 -16 -16 -16
-19 -19 -19 -19 -20 -20 -20 -20 -20 -20 -20 -19 -19 -19 -18 -18 -17 -17 -18 -18 -18 -18 -18 -18 -17 -17 -17 -17 -17 -17 -17 -17 -16 -16 -16 -16 -16 -16 -16 -16 -16 -15 -14 -14 -14 -14 -15 -15 -15 -15 -15 -15 -15 -15 -16 -16 -16 -16 -16 -16 -16 -17 -17
-19 -19 -20 -20 -21 -21 -21 -20 -20 -20 -20 -20 -19 -19 -18 -18 -18 -18 -19 -20 -20 -20 -19 -19 -19 -19 -19 -19 -19 -18 -18 -18 -18 -18 -18 -17 -17 -17 -17 -17 -17 -17 -16 -15 -15 -14 -15 -15 -15 -15 -15 -16 -16 -16 -16 -16 -16 -16 -17 -17 -17 -18 -18
-19 -19 -20 -21 -21 -21 -21 -21 -21 -21 -21 -20 -19 -18 -18 -19 -18 -19 -21 -22 -21 -21 -21 -20 -20 -20 -20 -20 -20 -20 -20 -20 -20 -20 -19 -19 -19 -19 -18 -18 -18 -18 -17 -17 -16 -15 -15 -15 -15 -15 -15 -16 -16 -16 -16 -16 -17 -17 -17 -17 -18 -19 -20
-19 -19 -21 -21 -21 -22 -21 -21 -22 -22 -21 -20 -19 -19 -20 -20 -19 -20 -22 -23 -23 -22 -22 -22 -22 -22 -22 -22 -22 -22 -22 -22 -22 -21 -21 -21 -21 -20 -20 -20 -20 -20 -19 -18 -18 -17 -16 -15 -15 -15 -16 -16 -16 -17 -17 -17 -17 -17 -18 -18 -19 -20 -20
-19 -20 -21 -22 -22 -22 -22 -22 -22 -22 -21 -20 -19 -20 -21 -21 -20 -21 -23 -24 -24 -23 -23 -23 -24 -24 -24 -24 -24 -24 -24 -24 -24 -23 -23 -23 -22 -22 -22 -22 -21 -21 -21 -20 -19 -19 -18 -17 -16 -16 -16 -16 -17 -17 -17 -17 -17 -18 -18 -19 -20 -20 -20
-21 -21 -22 -22 -23 -22 -22 -23 -23 -23 -22 -21 -20 -21 -23 -23 -22 -23 -25 -25 -25 -25 -25 -26 -26 -26 -26 -26 -26 -26 -25 -25 -25 -25 -25 -25 -24 -24 -23 -23 -23 -23 -22 -22 -21 -20 -20 -19 -18 -17 -17 -17 -17 -17 -17 -17 -18 -18 -19 -19 -20 -20 -20
-23 -23 -23 -23 -23 -23 -23 -24 -24 -24 -23 -22 -22 -23 -25 -25 -24 -25 -27 -27 -26 -26 -27 -27 -28 -28 -27 -27 -27 -27 -27 -26 -26 -26 -26 -26 -26 -25 -25 -25 -25 -24 -24 -23 -22 -22 -21 -20 -19 -19 -18 -18 -18 -18 -18 -18 -18 -19 -19 -20 -20 -20 -20
-25 -25 -25 -25 -25 -24 -24 -25 -25 -25 -24 -24 -24 -25 -27 -27 -26 -27 -28 -28 -27 -28 -29 -29 -29 -29 -28 -28 -28 -28 -28 -28 -27 -27 -27 -27 -27 -26 -26 -26 -26 -25 -24 -24 -24 -23 -22 -21 -21 -20 -19 -19 -18 -18 -18 -19 -19 -19 -20 -20 -20 -20 -20
-26 -27 -27 -27 -27 -26 -26 -27 -27 -27 -26 -25 -26 -27 -28 -28 -28 -28 -28 -28 -29 -29 -29 -29 -30 -29 -29 -29 -29 -29 -28 -28 -28 -28 -28 -28 -27 -27 -27 -26 -26 -26 -25 -25 -25 -24 -23 -23 -22 -21 -20 -20 -20 -19 -19 -19 -20 -20 -20 -20 -20 -20 -21
-27 -27 -28 -28 -28 -28 -28 -28 -28 -28 -27 -27 -28 -29 -29 -29 -29 -29 -29 -29 -29 -30 -30 -30 -30 -30 -29 -29 -29 -29 -29 -29 -29 -28 -28 -28 -28 -28 -27 -27 -27 -26 -26 -26 -26 -26 -25 -24 -23 -22 -21 -21 -21 -20 -20 -20 -20 -20 -20 -20 -20 -20 -21
-28 -28 -28 -28 -29 -29 -29 -29 -29 -29 -28 -28 -29 -30 -30 -30 -30 -30 -30 -30 -30 -30 -30 -30 -30 -30 -30 -30 -29 -29 -29 -29 -29 -29 -29 -29 -28 -28 -28 -28 -27 -27 -27 -27 -27 -26 -26 -26 -25 -24 -23 -22 -21 -21 -21 -21 -21 -21 -21 -21 -21 -21 -21
Height
750 750 750 750 750 749 750 750 750 751 751 752 751 751 753 753 755 755 754 756 757 757 759 759 760 759 760 764 766 766 768 769 770 772 774 775 776 777 779 781 783 781 779 780 781 782 784 786 788 789 790 792 794 797 799 800 802 805 807 808 809 812 814
747 747 746 746 746 746 746 746 746 747 747 747 747 747 748 748 750 750 749 750 751 751 753 754 754 753 755 759 761 761 762 763 765 767 768 769 770 771 773 775 778 778 777 776 778 780 781 783 784 785 786 788 789 792 794 795 797 800 802 803 805 807 810
745 744 744 743 743 742 743 742 743 743 743 743 742 742 743 743 744 744 744 745 745 746 748 749 748 748 750 754 755 755 756 758 759 761 762 763 765 766 767 770 773 774 773 773 774 776 777 779 780 781 783 784 786 789 790 791 794 796 798 800 801 803 805
744 742 741 741 740 740 740 739 739 740 739 739 739 738 738 739 739 739 739 739 739 741 743 743 743 742 745 749 750 749 750 752 754 756 757 758 760 761 762 765 768 769 769 770 771 772 773 774 776 777 779 782 784 786 788 789 791 793 795 796 798 800 802
742 740 739 738 737 737 737 736 736 736 735 735 735 735 734 734 734 734 734 734 734 735 737 738 737 737 740 743 743 743 745 747 748 750 752 753 754 756 758 760 763 764 765 766 767 768 770 771 773 775 776 778 780 783 786 787 789 790 792 793 795 796 798
740 738 737 736 735 735 734 733 733 733 732 732 731 731 730 730 730 730 729 730 730 730 732 732 732 733 735 737 737 737 739 741 743 745 746 747 748 751 753 756 757 759 761 763 763 765 767 768 769 771 772 774 776 778 781 783 785 787 788 790 791 793 794
738 737 735 734 733 732 731 731 730 730 729 729 728 728 727 726 726 725 725 725 725 726 727 727 727 728 729 731 731 731 733 735 737 739 740 741 743 746 749 751 753 755 757 758 759 761 763 763 765 767 768 770 773 775 777 779 781 784 785 786 787 788 790
737 735 734 733 731 730 729 728 727 727 726 725 725 724 724 723 722 722 721 721 721 721 722 722 723 723 724 725 725 726 728 729 731 733 735 736 739 742 744 746 748 751 752 754 755 757 758 760 761 763 765 767 770 772 773 775 777 778 780 781 783 784 785
736 734 733 731 730 728 727 726 725 724 723 723 722 721 721 720 719 719 718 718 717 717 718 718 718 718 719 720 721 721 723 724 726 728 729 731 734 737 739 741 743 746 747 749 751 752 754 756 757 758 761 763 764 765 767 770 772 773 775 777 779 780 781
735 733 732 730 729 727 726 725 723 723 722 721 720 719 718 717 717 716 715 715 714 714 714 714 714 714 715 716 717 717 718 720 722 723 724 726 728 731 733 736 738 740 742 744 745 746 749 751 751 751 754 756 757 759 762 766 768 769 771 774 775 776 776
733 732 730 729 728 726 725 724 722 721 721 720 719 718 716 715 714 713 712 712 711 711 710 711 711 711 711 712 713 713 714 716 717 718 720 721 723 725 726 729 732 733 736 738 739 740 742 744 743 745 749 751 753 756 759 761 763 764 767 769 770 771 771
732 731 729 727 726 724 723 722 721 720 719 718 717 716 714 713 711 710 709 709 708 708 707 707 707 707 708 708 708 709 710 711 712 714 715 717 719 720 721 722 724 726 729 731 733 734 736 736 737 741 744 745 748 752 754 756 758 759 761 763 764 764 765
731 729 728 726 725 723 722 721 721 720 719 717 716 714 713 711 710 708 707 706 706 705 704 704 704 704 704 704 705 706 706 707 708 709 711 713 715 716 716 717 719 720 722 724 726 728 728 729 732 735 737 739 742 746 749 751 753 754 756 758 758 758 760
731 730 728 727 725 724 723 722 721 720 719 717 715 713 712 710 708 707 706 705 704 703 702 702 702 701 701 701 701 702 703 704 705 706 707 709 710 711 712 713 715 717 718 720 721 722 722 724 727 729 730 733 737 740 742 744 747 749 751 752 752 754 757
731 730 728 727 726 724 723 722 720 720 718 716 714 712 710 708 707 706 705 704 703 702 701 700 700 699 699 698 698 699 699 700 701 703 704 704 705 706 707 709 710 711 713 715 716 717 718 720 722 724 726 729 731 734 736 738 740 743 745 747 750 752 754
732 730 728 727 725 724 722 721 720 718 717 716 714 711 709 708 707 706 704 703 702 701 700 699 698 698 697 696 696 696 697 698 699 699 700 701 701 702 704 704 705 707 710 711 712 713 715 717 718 720 722 724 726 729 732 736 739 740 743 746 748 750 750
732 730 728 727 725 723 722 720 719 718 717 715 713 711 709 708 707 706 704 703 702 700 699 698 697 696 696 695 695 695 695 696 696 697 697 697 698 699 700 700 701 704 707 708 709 710 711 713 715 717 719 721 722 725 728 732 734 736 739 742 744 745 745
731 730 728 726 725 723 721 720 718 717 716 715 713 711 710 708 707 705 704 702 701 700 699 698 696 696 695 694 693 693 694 694 695 694 694 695 696 697 697 697 699 702 704 705 706 707 708 709 711 712 715 717 718 720 723 725 727 730 733 736 737 739 741
730 729 727 726 724 723 721 719 718 716 715 714 713 711 710 708 706 705 703 702 700 699 698 697 696 695 694 693 693 692 692 693 693 692 691 692 694 694 693 694 697 698 699 701 702 703 704 705 707 708 710 712 715 716 717 718 721 724 727 729 731 734 738
729 727 726 725 724 722 721 719 717 716 715 714 712 711 709 707 706 704 703 701 700 698 697 696 695 694 693 692 692 691 691 691 691 691 690 690 690 690 690 692 694 694 695 696 698 698 700 702 704 705 706 708 710 713 713 714 717 720 721 724 727 729 731
728 727 725 724 723 722 720 718 717 715 714 713 712 710 709 707 706 704 702 700 699 698 697 695 694 693 692 692 691 690 690 689 689 689 688 687 687 686 688 689 689 690 691 693 694 695 696 698 700 701 703 704 705 708 709 710 712 714 716 718 720 723 725
727 726 724 723 722 721 719 718 716 715 713 712 711 710 708 707 705 703 701 699 698 697 696 695 694 692 691 691 690 689 689 688 688 687 686 686 685 685 685 685 685 686 688 689 690 691 692 694 696 697 699 700 701 703 705 707 707 709 711 713 714 717 719
726 725 723 722 721 720 719 718 716 715 713 712 710 709 708 706 704 703 701 699 697 696 695 693 692 691 690 690 689 688 688 687 686 685 684 684 683 682 682 682 682 682 683 684 686 687 688 689 691 693 694 696 697 699 702 703 704 704 706 708 710 712 714
726 724 723 721 720 719 718 717 716 715 713 712 710 708 707 705 703 702 700 698 697 695 694 692 691 690 689 688 688 687 686 685 684 683 683 682 681 680 680 681 681 680 680 681 682 683 683 685 686 688 689 690 692 695 697 699 700 701 702 705 707 709 711
726 725 724 722 720 719 718 716 715 714 713 711 709 708 706 704 702 701 699 697 696 694 693 692 690 689 688 687 686 685 684 683 682 681 681 680 680 679 679 680 680 680 679 679 679 679 679 680 681 682 684 685 688 690 692 694 696 698 699 702 704 705 707
726 725 724 723 722 720 718 717 715 713 712 710 709 707 705 703 701 699 698 696 694 693 692 691 689 688 687 686 685 684 683 682 681 680 679 679 679 678 678 678 679 679 678 677 677 677 677 677 678 679 681 683 685 686 687 689 691 693 695 697 699 701 703
726 725 724 723 722 720 718 717 715 713 711 709 708 706 704 702 700 698 696 695 694 692 691 690 688 687 686 685 684 683 682 681 680 679 678 677 677 677 676 677 677 677 676 676 675 675 675 675 676 677 678 680 681 682 683 685 687 689 690 692 695 697 698
726 725 724 723 721 719 718 716 715 713 712 710 708 706 703 701 700 697 695 694 693 692 690 689 688 686 685 683 682 681 680 679 678 678 677 676 675 675 674 674 674 674 674 674 673 673 673 673 673 674 674 676 677 678 679 681 683 685 686 688 691 692 694
728 726 725 723 722 720 718 716 715 714 713 711 709 706 703 702 701 698 696 694 693 691 689 687 686 685 683 682 681 680 680 678 677 677 676 675 675 674 673 673 672 672 672 672 672 671 670 670 670 670 671 672 673 674 676 677 679 681 683 685 687 688 689
729 727 725 724 723 721 720 718 716 715 713 711 709 706 704 702 702 699 696 693 692 690 688 687 686 685 684 683 682 681 680 679 678 677 676 675 674 674 673 672 671 671 671 670 670 670 669 669 668 668 668 669 670 671 673 674 676 677 679 681 682 684 685
729 727 726 724 723 721 720 718 716 715 713 710 708 706 703 702 702 700 696 693 692 690 689 688 687 686 685 684 683 682 681 680 679 678 676 675 674 674 673 672 671 671 670 669 668 668 667 667 667 666 666 666 666 667 669 670 672 674 675 677 678 679 681
728 727 725 724 723 721 720 718 716 714 712 710 708 706 704 703 702 700 697 695 693 691 691 690 689 688 687 686 684 684 683 681 680 679 678 677 675 674 674 673 672 671 670 668 667 667 666 666 665 665 665 664 664 665 665 666 668 670 672 673 674 676 677
727 726 725 724 722 721 720 718 716 714 712 711 709 707 705 704 702 701 698 696 694 693 693 692 691 690 689 688 687 686 684 683 682 681 679 678 677 675 674 673 672 671 670 668 667 666 665 664 664 663 663 663 663 663 663 663 664 666 667 669 670 672 674
726 725 724 723 721 721 719 718 716 714 713 711 709 707 706 705 703 701 699 697 696 695 694 693 693 691 690 689 688 687 685 684 683 681 680 679 677 676 675 673 671 670 669 668 667 666 665 664 663 662 662 661 661 661 660 661 661 662 663 665 666 668 670
725 724 724 723 721 720 719 718 716 715 713 712 710 708 706 704 702 700 699 698 697 696 695 694 694 692 691 690 689 687 686 685 683 682 680 679 677 676 674 673 671 670 669 668 667 665 664 663 662 661 660 659 659 658 658 658 658 659 660 661 663 664 666
725 724 724 723 721 720 719 718 716 715 714 713 711 709 706 704 703 702 701 699 699 698 697 696 695 693 692 691 689 688 686 685 684 682 681 679 678 676 674 673 672 670 669 667 666 665 664 662 661 659 658 657 656 656 656 656 656 657 657 658 660 661 663
Wind_Speed
28 29 31 32 34 35 35 36 36 36 36 37 39 40 39 39 37 38 41 40 39 40 39 40 41 43 44 41 38 39 39 40 40 39 38 38 38 38 37 35 28 19 16 16 16 17 20 25 29 30 31 33 34 34 34 34 34 33 32 32 31 29 28
25 26 28 30 32 33 34 35 35 35 35 36 38 39 38 38 37 38 40 39 39 40 39 39 41 43 43 39 39 41 40 39 39 37 38 38 37 37 37 36 32 25 19 18 18 19 20 23 27 30 31 32 33 34 35 36 35 34 33 32 31 30 29
20 22 24 27 29 30 31 33 34 34 35 36 38 38 38 39 38 39 40 39 40 40 39 39 41 43 42 37 37 41 41 40 39 37 37 38 37 37 37 36 34 30 24 21 19 20 23 25 27 30 31 32 32 32 33 35 34 33 33 32 31 30 29
16 16 18 21 25 27 28 30 32 33 34 36 38 39 39 39 39 39 41 41 41 40 39 39 41 43 41 37 37 40 40 39 38 37 37 37 37 37 37 35 34 33 30 25 20 20 25 27 28 30 31 30 30 30 31 32 32 31 31 31 31 30 29
17 16 15 16 18 21 23 26 28 30 32 35 36 38 39 39 39 40 41 41 42 41 40 39 41 43 40 36 37 40 39 38 38 37 37 37 37 36 36 33 32 34 32 28 24 21 21 25 27 28 28 29 30 29 28 30 31 31 31 31 30 29 29
19 18 17 17 16 16 18 19 22 24 27 31 33 36 38 39 39 39 40 41 41 41 40 39 41 42 39 37 38 40 39 38 38 38 37 37 37 36 34 33 32 32 31 29 28 23 20 23 26 26 26 29 31 31 31 30 30 30 31 30 30 30 30
20 19 19 19 18 17 16 16 17 19 21 24 27 31 35 37 38 38 39 40 40 40 40 40 41 41 40 38 40 41 40 38 37 38 38 39 38 35 33 32 31 31 29 28 28 24 22 24 26 27 26 28 30 31 30 30 27 26 28 30 31 32 32
21 21 19 19 19 18 17 17 16 16 17 18 20 23 28 32 34 36 36 38 39 39 39 39 40 41 40 40 41 42 41 40 38 37 37 38 37 34 33 32 30 29 28 28 27 24 23 23 23 25 24 23 26 27 26 27 28 27 29 31 33 34 34
20 20 20 19 19 18 18 17 17 16 15 16 17 18 21 25 29 31 33 34 35 36 37 37 38 38 39 39 40 41 41 41 40 38 37 37 36 34 33 32 30 28 27 26 24 23 22 20 21 24 23 22 26 30 29 29 29 29 29 29 32 34 34
20 19 19 19 18 18 17 16 16 15 15 14 15 15 16 19 22 25 28 30 31 32 33 33 34 36 37 37 38 39 40 40 40 40 40 38 37 36 35 32 30 29 28 26 23 24 23 19 20 25 27 28 30 32 31 29 29 28 26 23 24 25 28
20 19 18 18 18 17 17 17 16 15 15 14 14 15 15 16 19 20 23 25 27 28 30 30 31 32 33 34 35 36 37 38 39 40 41 40 39 39 40 37 33 31 30 27 24 25 25 23 23 26 29 30 30 29 29 29 30 29 26 22 19 16 19
21 20 19 19 19 18 17 17 16 15 16 16 15 15 15 16 18 19 20 23 24 26 27 27 28 29 30 32 33 34 35 36 37 38 40 41 41 42 43 43 41 37 33 31 28 26 26 27 27 26 28 31 30 29 30 30 30 30 28 25 22 19 18
22 21 20 20 19 19 18 16 16 16 16 16 16 15 15 16 17 17 17 19 22 24 26 26 26 26 28 30 31 31 32 33 34 35 37 39 40 42 43 45 46 44 40 38 35 30 30 32 30 28 31 35 34 32 31 30 29 29 28 27 27 27 26
21 20 19 19 18 18 16 15 15 16 16 16 15 15 15 15 15 15 15 15 17 20 23 24 25 25 26 28 29 30 30 30 31 31 32 34 37 40 42 43 44 44 42 41 38 35 34 34 34 34 35 36 36 35 34 32 31 31 31 32 32 31 29
19 18 18 17 17 17 15 14 16 17 17 16 16 15 15 15 15 15 15 15 14 14 17 20 22 24 25 26 27 28 28 29 29 29 29 31 34 37 39 40 42 43 42 40 39 39 38 35 35 37 37 36 37 38 39 37 36 37 36 34 30 26 24
18 18 17 17 17 17 17 16 16 17 17 17 17 16 17 16 16 15 15 15 14 12 13 15 18 21 23 24 26 27 27 28 28 28 29 29 31 33 34 37 40 40 40 39 39 39 39 37 36 36 36 37 37 38 38 35 32 32 31 26 20 19 22
18 17 17 17 17 18 18 18 17 17 17 18 18 18 18 17 16 16 15 15 15 14 13 13 13 15 18 21 22 23 23 24 25 27 28 28 29 29 30 33 36 34 32 35 36 37 37 37 36 33 32 34 35 36 36 33 28 27 27 23 15 13 19
18 17 17 17 17 17 18 18 18 18 17 18 18 18 18 17 16 16 16 16 16 16 15 14 13 13 13 15 18 18 18 19 21 25 28 28 27 27 28 29 30 29 29 31 32 33 34 34 34 33 30 30 32 33 35 36 33 30 30 26 18 14 16
17 17 17 17 17 16 16 17 17 17 17 17 17 17 17 17 16 16 17 18 18 17 16 15 14 14 13 13 14 15 15 17 19 23 26 27 26 25 27 28 26 27 30 31 31 32 33 32 30 30 31 31 30 31 35 38 37 34 33 29 24 20 15
17 18 17 17 16 15 16 17 17 16 16 17 17 16 17 17 17 17 18 18 17 16 17 16 15 14 13 13 14 14 14 15 18 21 24 26 26 25 27 28 28 28 30 31 32 34 34 32 29 27 30 32 32 32 34 37 37 36 35 33 28 25 20
17 18 17 17 16 16 17 17 17 17 17 17 17 17 17 18 18 18 18 16 15 15 16 16 15 14 13 13 14 15 15 15 16 19 21 23 26 29 30 29 29 30 30 30 32 33 32 32 30 27 27 29 32 34 34 35 37 37 37 35 32 28 26
18 18 18 18 18 18 17 17 17 18 18 18 18 18 18 18 18 17 17 17 18 18 18 17 17 17 15 15 15 16 16 17 18 20 22 21 21 25 29 30 30 31 30 29 30 30 30 30 29 28 27 27 29 32 33 34 36 38 38 38 37 33 30
18 19 20 20 19 18 18 17 18 18 19 19 19 19 19 18 18 17 18 20 21 21 20 20 19 18 17 17 18 18 17 18 18 17 18 18 16 16 18 22 26 28 29 29 28 28 28 28 28 28 29 29 30 31 33 33 33 35 38 38 38 37 34
19 20 20 20 20 19 19 19 20 20 20 20 19 19 20 20 19 19 20 22 22 20 19 19 18 18 18 17 18 18 18 19 19 17 16 17 18 17 16 14 15 18 23 26 26 25 25 27 29 30 31 33 35 35 36 37 35 33 33 34 35 36 35
21 21 19 17 17 19 21 22 22 23 22 21 20 20 21 21 20 21 21 21 20 18 17 17 17 17 18 17 18 19 20 22 22 22 21 22 22 21 18 15 14 13 14 19 22 23 24 26 29 32 34 35 36 35 35 36 36 34 32 31 31 32 33
21 20 15 13 15 17 20 22 22 22 23 22 22 23 22 22 22 21 18 16 16 17 17 17 17 17 17 17 17 18 19 20 21 22 22 23 23 22 21 18 16 15 13 14 17 20 23 26 27 30 32 32 31 30 31 32 33 33 33 32 31 30 30
22 16 12 13 16 18 20 21 20 21 23 24 25 25 23 21 19 17 15 16 17 17 18 18 17 16 15 15 15 15 15 16 17 18 19 19 20 20 20 19 17 16 16 16 16 16 18 22 24 26 28 28 27 28 30 31 31 30 31 32 31 28 27
20 14 13 15 18 20 20 19 18 20 23 24 25 25 22 18 16 17 18 18 18 19 20 20 19 17 16 16 16 16 15 15 16 16 16 17 17 17 17 17 16 16 17 18 18 18 18 18 19 21 24 27 28 29 30 30 30 29 29 29 27 24 22
17 15 16 17 18 19 18 16 17 20 21 22 22 21 19 18 18 20 20 18 18 22 24 22 21 19 18 18 18 18 18 18 18 18 17 17 16 16 16 16 16 16 17 17 17 17 18 18 19 20 22 24 26 27 28 29 29 29 27 25 25 23 22
15 16 17 17 16 16 15 15 18 20 20 20 20 19 19 18 19 20 21 21 22 23 21 19 18 18 18 18 18 17 17 18 19 19 19 18 18 17 17 16 15 16 17 17 17 17 17 17 18 20 22 23 24 25 26 27 28 28 26 24 24 22 21
14 15 16 15 16 15 14 15 17 19 19 19 19 19 21 20 19 20 21 22 21 19 17 18 18 18 18 19 18 17 17 18 18 18 18 19 19 18 17 17 16 17 17 17 17 17 17 16 16 18 20 22 24 25 25 26 27 27 26 26 25 23 22
14 15 15 15 16 16 16 16 17 18 19 18 18 19 21 20 19 19 20 19 17 17 18 19 18 17 18 18 18 18 18 17 17 18 18 18 18 18 18 19 19 19 18 17 17 16 16 16 16 17 18 19 22 23 24 25 26 26 25 25 24 23 23
14 15 15 15 15 15 15 16 17 18 19 18 17 19 20 19 17 17 18 18 18 19 18 18 17 17 17 17 17 17 17 17 18 18 18 17 17 17 18 19 20 20 19 17 16 15 15 15 16 17 18 19 20 21 22 23 25 26 26 24 22 21 21
14 14 15 15 14 14 15 16 17 18 18 18 17 18 18 17 16 17 18 19 19 19 18 18 17 17 17 17 17 17 17 18 18 18 18 18 18 18 18 19 20 20 18 16 16 16 15 15 16 17 18 19 19 20 20 21 22 23 23 22 20 20 21
15 15 15 14 13 14 14 16 17 17 16 16 17 17 18 18 19 20 21 20 20 20 19 18 18 18 18 18 17 17 17 18 18 18 19 20 20 19 18 18 18 18 17 17 17 17 16 16 16 16 17 19 19 19 18 18 19 21 22 22 21 21 20
14 15 14 13 12 13 14 15 15 15 15 15 15 16 17 18 19 19 19 20 20 20 19 19 19 19 19 18 18 17 17 17 17 17 18 18 19 20 19 17 16 16 16 17 17 17 17 17 16 16 16 17 19 19 19 19 19 20 22 23 22 22 21
Wind_Direction
281 276 272 268 264 261 257 254 252 249 245 242 242 242 241 240 238 237 240 240 238 238 237 236 237 238 239 236 234 235 235 234 234 233 232 232 231 231 230 229 229 236 249 245 233 227 224 222 221 220 222 222 221 219 218 222 226 227 227 229 232 232 229
293 287 280 274 269 265 262 258 255 251 247 244 244 243 242 241 238 238 240 239 239 238 237 236 237 239 239 236 234 235 235 234 234 231 230 230 229 230 230 227 226 230 241 243 232 222 220 219 216 217 218 219 220 219 216 218 222 223 226 228 230 229 227
306 298 289 283 276 270 266 262 259 255 250 247 246 245 244 243 240 239 240 239 239 239 237 235 237 239 239 235 233 235 235 234 234 230 230 230 228 229 230 228 225 227 234 240 235 224 219 216 214 217 219 219 221 220 217 218 220 221 224 226 227 228 228
321 312 300 291 285 278 273 268 264 259 254 251 249 247 246 245 242 241 241 241 241 241 238 236 237 239 238 234 232 234 235 233 232 230 229 230 229 228 230 229 225 226 230 235 236 227 222 220 218 220 221 218 218 218 217 219 220 220 222 224 225 227 229
330 327 319 309 299 291 284 278 272 266 260 256 253 250 249 248 246 244 244 244 243 242 240 237 238 240 238 232 231 233 233 231 230 229 228 229 229 228 228 228 226 226 228 231 233 229 223 221 220 221 221 217 214 212 212 216 219 220 222 223 225 227 228
329 329 326 322 317 309 300 291 283 277 271 265 259 255 252 250 249 247 246 246 246 244 242 240 240 241 238 233 231 232 232 231 229 228 227 228 228 227 226 225 225 225 225 227 231 229 219 215 214 214 216 217 215 211 207 207 213 218 220 221 222 225 228
330 328 326 322 321 319 314 307 298 290 284 278 270 262 256 253 251 249 248 248 248 246 245 242 242 242 239 235 233 234 233 231 229 228 227 228 228 226 224 223 224 223 222 224 228 227 219 214 213 212 213 215 213 212 209 205 204 210 217 220 222 225 228
331 329 326 322 320 318 316 313 309 304 298 292 284 275 266 259 255 252 251 250 250 249 247 245 244 243 241 239 237 237 235 232 230 228 227 228 227 224 221 221 221 220 220 221 223 224 220 215 211 210 211 208 203 204 209 208 205 211 217 219 222 226 229
333 331 329 326 323 321 319 317 314 312 309 303 298 291 281 271 263 257 254 253 252 251 249 248 246 245 244 242 241 240 239 236 233 229 227 227 225 221 219 219 218 217 216 218 220 223 219 211 209 207 202 197 198 202 209 209 208 215 220 220 223 228 230
338 337 335 333 330 327 324 322 319 316 314 312 307 301 294 286 276 267 260 257 255 254 253 251 249 248 247 246 244 243 242 240 237 233 232 230 225 220 217 215 215 215 215 213 215 218 215 209 213 211 203 203 207 208 210 208 206 213 218 216 222 230 232
344 343 341 339 337 335 332 328 325 323 321 319 315 308 302 296 290 281 271 264 260 258 257 255 253 251 250 248 247 245 244 242 240 237 235 233 230 226 222 217 214 214 214 213 215 217 214 212 218 215 208 210 212 209 208 208 208 212 212 208 211 224 230
349 348 347 345 342 342 341 336 332 331 328 325 321 316 309 303 300 295 284 273 266 263 262 260 258 255 253 251 249 247 246 243 241 239 237 235 233 231 229 225 222 219 216 214 215 217 216 216 219 216 211 211 210 207 209 211 211 212 211 208 211 217 221
351 350 351 350 349 347 346 343 343 340 334 330 326 322 318 313 310 308 301 289 277 270 266 263 261 259 256 255 252 250 247 244 242 240 239 237 234 232 232 230 228 227 225 221 218 217 219 219 217 215 214 215 212 207 207 208 210 212 211 211 215 220 223
353 354 354 354 354 352 350 351 351 346 340 338 333 329 326 323 322 322 322 315 300 286 276 268 263 260 258 257 255 252 248 244 242 239 237 235 232 230 231 231 229 229 230 228 224 223 226 225 221 220 221 219 215 211 209 209 210 211 211 215 221 225 227
354 356 358 357 356 355 355 358 356 351 348 347 344 342 343 341 337 334 334 332 324 310 296 285 275 266 262 259 257 254 251 246 241 237 234 232 229 229 229 229 229 228 229 229 228 229 231 230 227 226 226 223 218 217 218 218 218 217 216 217 221 224 225
353 356 357 356 356 356 354 355 355 353 351 350 349 352 354 352 348 347 347 345 342 335 320 306 292 279 270 265 260 257 254 250 243 236 232 230 229 229 229 230 232 231 229 229 231 233 234 234 233 231 228 227 223 221 220 218 218 218 213 210 212 215 219
350 351 353 353 353 354 350 347 349 351 350 348 348 352 355 354 351 349 348 347 346 344 338 326 312 296 283 274 268 262 256 250 242 235 232 230 229 229 229 232 233 232 231 231 233 235 235 234 234 232 228 226 226 225 218 207 205 207 202 197 201 209 214
346 345 349 351 351 353 349 344 344 348 348 347 346 348 352 352 348 344 341 338 336 335 335 333 329 322 308 291 280 271 261 251 240 234 232 231 230 229 229 232 233 231 231 233 235 238 238 236 232 229 225 221 219 220 216 208 206 205 199 197 204 208 209
347 344 347 351 353 356 356 352 349 350 350 349 346 346 347 346 344 341 338 335 333 332 332 329 326 326 324 314 300 283 270 260 251 242 235 230 229 230 231 232 232 231 232 232 233 236 239 239 233 225 223 221 214 210 213 216 215 209 202 203 209 207 200
351 348 351 357 1 6 7 3 357 355 354 351 348 346 346 346 345 341 334 332 333 335 333 329 324 321 321 319 313 299 284 272 264 256 247 234 227 229 235 236 234 232 232 232 233 234 236 237 234 226 221 220 216 210 212 217 218 214 213 212 211 207 206
356 355 356 2 7 8 7 5 2 360 357 354 351 348 345 345 345 339 333 336 339 336 333 331 326 322 318 314 311 305 296 286 276 271 265 249 235 236 242 241 236 235 233 231 233 235 235 234 234 229 222 217 214 212 212 214 216 217 220 220 216 211 211
1 0 360 2 3 4 5 5 4 2 359 356 352 349 345 342 340 336 338 343 340 331 327 324 320 316 311 308 307 303 296 291 285 281 281 275 261 252 248 241 236 236 232 228 229 231 232 232 230 228 226 222 217 214 212 213 216 217 219 223 224 220 217
3 360 357 356 358 3 5 4 1 358 355 353 350 346 343 340 337 336 339 342 337 331 328 325 321 316 309 301 298 295 291 291 291 291 293 295 296 290 271 251 240 233 227 225 226 225 227 229 228 225 225 225 223 221 217 216 219 219 219 221 224 225 227
359 353 351 352 355 358 359 358 355 351 349 350 348 344 341 338 336 336 337 337 337 336 334 330 325 319 311 304 299 295 295 296 298 302 305 302 303 309 308 293 270 245 228 223 223 223 223 225 225 224 224 226 228 229 228 226 225 224 222 221 222 225 227
352 346 348 354 355 352 350 349 348 347 348 351 351 348 342 337 335 337 337 336 337 337 335 329 322 316 311 307 303 299 296 295 296 298 299 298 298 302 306 308 305 287 250 228 223 225 226 226 225 226 228 231 232 231 230 228 227 227 226 225 225 226 226
344 342 350 357 353 348 346 346 348 348 350 352 352 348 342 337 337 338 337 336 337 336 334 329 325 323 322 319 314 310 306 302 301 300 298 297 298 300 301 300 299 296 281 254 237 232 230 231 231 231 232 233 230 227 225 225 225 225 226 227 226 225 226
336 341 2 1 350 349 348 347 350 352 351 349 346 340 338 339 341 343 345 347 346 343 340 336 333 332 331 328 324 320 317 314 312 310 308 305 303 303 304 303 297 289 283 277 266 253 243 239 236 233 230 228 225 223 224 225 224 223 224 225 224 222 224
333 351 12 2 353 350 346 345 353 353 347 342 337 335 342 351 352 352 356 357 351 343 337 335 332 331 330 330 330 329 328 327 326 324 322 319 316 313 309 308 304 295 286 281 277 269 258 245 235 228 225 222 221 221 223 224 222 221 222 221 216 212 217
339 1 7 1 357 351 342 344 352 347 339 335 333 339 356 2 352 351 0 1 349 338 335 334 336 339 342 344 345 346 345 344 342 339 337 335 332 329 323 319 318 313 303 294 288 278 264 248 233 225 221 219 217 218 220 220 218 218 218 214 208 209 215
346 357 359 357 358 352 343 343 345 340 337 335 335 347 3 359 346 349 356 352 342 339 341 346 351 354 356 357 357 356 354 353 352 350 348 346 343 342 341 337 332 328 320 310 301 292 280 262 242 227 218 214 213 216 218 219 220 219 215 208 205 211 218
352 356 358 358 356 351 346 346 345 343 341 339 339 352 3 356 348 353 356 350 347 354 5 10 9 6 6 5 3 1 358 358 359 359 355 351 347 345 348 348 343 339 333 322 312 302 291 278 261 241 225 215 212 211 212 214 218 218 215 211 209 212 216
0 360 0 0 358 354 353 353 351 349 347 346 347 358 4 359 355 1 3 360 5 18 25 22 18 14 10 8 6 2 1 0 359 358 356 355 352 348 348 347 344 340 335 330 323 312 297 285 274 260 245 229 218 212 208 209 211 212 211 211 212 214 218
6 3 1 1 360 360 359 357 355 354 354 354 355 1 4 3 3 9 13 15 21 27 24 20 18 15 10 8 6 1 359 358 356 354 353 353 351 348 346 344 341 338 335 334 332 322 307 294 282 270 260 248 234 223 216 210 209 208 208 208 209 213 217
2 4 5 3 0 2 3 1 360 360 359 360 3 6 5 3 5 13 19 24 28 26 19 13 13 11 7 6 5 0 357 356 354 352 350 349 347 346 345 343 342 340 339 338 336 329 319 307 292 276 265 255 244 234 226 218 211 208 206 206 209 211 212
358 2 6 5 4 5 6 5 5 5 4 6 10 9 5 7 14 17 18 21 24 22 16 12 10 7 3 2 1 359 356 355 353 351 350 350 348 346 345 345 345 344 342 339 338 335 330 320 306 288 270 258 248 240 232 225 217 212 210 211 212 212 211
355 358 3 9 12 10 7 8 10 11 10 12 13 10 9 16 21 20 16 16 17 16 13 10 9 7 3 359 357 354 352 351 350 349 349 350 350 350 351 351 351 347 343 340 339 339 338 334 325 309 287 266 251 242 236 232 225 219 216 216 215 214 213